Location: Frizzleburg
(41.0764°N, 80.4548°W)
Time: 20:11:22
(UTC+00:00)

Okean O Rocket - Pass Details

Date: 17 November 2019
Orbit: 622 x 646 km, 98.2° (Epoch: 05 December)

Event Time Altitude Azimuth Distance (km) Brightness Sun altitude
Rises 10:34:02 0° 18° (NNE) 2,911 5.1 -18.4°
Reaches altitude 10° 10:36:18 10° 24° (NNE) 1,999 4.3 -17.9°
Maximum altitude 10:40:31 49° 100° (E) 806 2.6 -17.2°
Drops below altitude 10° 10:44:42 10° 175° (S) 1,988 4.3 -16.4°
Sets 10:46:57 0° 181° (S) 2,892 5.1 -16.0°
